Hourly Data Report for November 15, 2017

All times are specified in Local Standard Time (LST). Add 1 hour to adjust for Daylight Saving Time where and when it is observed.

GIMLI CLIMATE
MANITOBA

50°38'00.000" N
97°03'00.000" W
230.10 m
5031042
71748
PGH

Download Data

Hourly Data (November 2017)
Hourly Data Report for November 15, 2017
Temp Definition
°C
Dew Point Temp Definition
°C
Rel Hum Definition
%
Wind Dir Definition
10's deg

Wind Spd Definition
km/h
Visibility Definition
km
Stn Press Definition
kPa
Hmdx Definition


Wind Chill Definition


Weather Definition


TIME
00:00 -1.5 -2.1 96 30 15   98.25   -6 LegendNANA
01:00 -2.7 -3.8 92 32 24   98.33   -9 LegendNANA
02:00 -3.6 -4.8 91 32 21   98.39   -10 LegendNANA
03:00 -3.9 -4.8 93 32 20   98.46   -10 LegendNANA
04:00 -4.5 -6.0 89 33 23   98.54   -11 LegendNANA
05:00 -5.2 -6.8 89 34 28   98.65   -13 LegendNANA
06:00 -5.8 -7.2 90 34 25   98.77   -13 LegendNANA
07:00 -6.2 -7.6 90 35 29   98.90   -14 LegendNANA
08:00 -6.3 -8.0 87 35 31   99.07   -15 LegendNANA
09:00 -6.7 -8.9 85 35 30   99.18   -15 LegendNANA
10:00 -6.9 -9.0 85 35 32   99.29   -16 LegendNANA
11:00 -6.9 -9.3 83 36 29   99.34   -15 LegendNANA
12:00 -7.0 -9.6 82 35 29   99.41   -15 LegendNANA
13:00 -6.7 -9.4 81 36 26   99.45   -15 LegendNANA
14:00 -6.2 -9.5 78 36 23   99.52   -14 LegendNANA
15:00 -6.5 -9.7 78 36 26   99.61   -14 LegendNANA
16:00 -6.7 -9.9 78 36 23   99.64   -14 LegendNANA
17:00 -6.7 -10.2 76 1 22   99.70   -14 LegendNANA
18:00 -7.0 -10.7 75 1 19   99.78   -14 LegendNANA
19:00 -7.5 -10.9 76 36 18   99.80   -14 LegendNANA
20:00 -7.5 -10.9 77 2 20   99.79   -15 LegendNANA
21:00 -7.8 -11.2 77 7 18   99.83   -15 LegendNANA
22:00 -8.2 -11.4 77 8 13   99.84   -14 LegendNANA
23:00 -8.4 -11.6 78 8 14   99.83   -15 LegendNANA

Notes on Data Quality.

Legend

  • E = Estimated
  • M = Missing
  • NA = Not Available
  • ‡ = Partner data that is not subject to review by the National Climate Archives
Date modified: